User: anonymous   Login
Location: Baix
(44.7118°N, 4.7648°E)
Time: 13:46:56
(UTC+00:00)
Language:

Cosmos 2297 Rocket - Orbit

View from above orbital plane
View from above orbital plane
View from above satellite
View from above satellite

Ground track
Ground track

The orbit data is extracted from the following two-line orbital elements,

1 23405U 94077B   20294.94505120 -.00000192 +00000-0 -73920-4 0  9993
2 23405 070.9833 166.6051 0005135 270.4754 089.5780 14.15228114338363
Epoch (UTC): 20 October 2020 22:40:52
Eccentricity: 0.0005135
inclination: 70.9833°
perigee height: 838 km
apogee height: 845 km
right ascension of ascending node: 166.6051°
argument of perigee: 270.4754°
revolutions per day: 14.15228114
mean anomaly at epoch: 89.5780°
orbit number at epoch: 33836

The dashed part of the orbit path shows where the satellite is in the earth's shadow,  

DLR